Ludington, MI

10:38 PM EDT on October 18, 2019 (GMT -0400)
Mason County

Weather History for KLDM - August, 2019

Change the Weather History Date:

Sunday, August 18, 2019

  Actual Average Record
Temperature  
Mean Temperature 66 °F -  
Max Temperature 74 °F 77 °F 93 °F (1988)
Min Temperature 58 °F 55 °F 39 °F (1958)
Cooling Degree Days 1    
Growing Degree Days 16 (Base 50)    
Moisture  
Dew Point 64 °F    
Average Humidity 91    
Maximum Humidity 98    
Minimum Humidity 78    
Precipitation  
Precipitation 0.26 in - - ()
Sea Level Pressure  
Sea Level Pressure 29.81 in    
Wind  
Wind Speed 4 mph (SSW)    
Max Wind Speed 16 mph    
Max Gust Speed 24 mph    
Visibility 8 miles    
Events Fog , Rain    
Averages and records for this station are not official NWS values.
T = Trace of Precipitation, MM = Missing Value Source: NWS Daily Summary

Daily Weather History Graph

Daily Weather History Graph

Search for Another Location

Airport or City:

Astronomy

Aug. 18, 2019 Rise Set
Actual Time 6:52 AM EDT 8:45 PM EDT
Civil Twilight 6:21 AM EDT 9:16 PM EDT
Nautical Twilight 5:43 AM EDT 9:54 PM EDT
Astronomical Twilight 5:02 AM EDT 10:35 PM EDT
Moon 10:34 PM EDT (8/18) 9:41 AM EDT (8/18)
Length of Visible Light 14h 54m
Length of Day
13h 52m
Waning Gibbous, 91% of the Moon is Illuminated
Aug 18
Waning Gibbous
Aug 23
Last Quarter
Aug 30
New
Sep 5
First Quarter
Sep 14
Full

Hourly Weather History & Observations

Time (EDT) Temp. Dew Point Humidity Pressure Visibility Wind Dir Wind Speed Gust Speed Precip Events Conditions
12:16 AM 59.2 °F 58.5 °F 97% 29.89 in 2.0 mi Calm Calm - N/A   Mostly Cloudy
12:35 AM 59.0 °F 58.3 °F 97% 29.89 in 0.5 mi Calm Calm - N/A Fog Fog
12:36 AM 59.2 °F 58.5 °F 97% 29.89 in 0.5 mi Calm Calm - N/A Fog Fog
12:55 AM 60.1 °F 59.4 °F 97% 29.88 in 7.0 mi Calm Calm - N/A   Scattered Clouds
12:56 AM 59.9 °F 59.2 °F 97% 29.88 in 7.0 mi Calm Calm - N/A   Scattered Clouds
1:19 AM 58.6 °F 57.9 °F 97% 29.88 in 2.0 mi Calm Calm - N/A   Clear
1:37 AM 59.9 °F 59.0 °F 97% 29.88 in 5.0 mi Calm Calm - N/A   Clear
1:55 AM 60.1 °F 59.4 °F 97% 29.88 in 0.8 mi Calm Calm - N/A   Mist
2:15 AM 59.4 °F 58.6 °F 97% 29.88 in 1.0 mi Calm Calm - N/A   Mist
2:16 AM 59.2 °F 58.5 °F 97% 29.88 in 1.0 mi Calm Calm - N/A   Mist
2:35 AM 59.9 °F 59.2 °F 97% 29.87 in 5.0 mi Calm Calm - N/A   Clear
2:58 AM 60.6 °F 59.9 °F 97% 29.86 in 5.0 mi Calm Calm - N/A   Clear
3:16 AM 58.5 °F 57.7 °F 97% 29.85 in 2.5 mi Calm Calm - N/A   Clear
3:35 AM 58.8 °F 58.1 °F 97% 29.84 in 7.0 mi Calm Calm - N/A   Clear
3:36 AM 58.8 °F 58.1 °F 97% 29.84 in 7.0 mi Calm Calm - N/A   Clear
3:55 AM 59.9 °F 59.2 °F 97% 29.84 in 10.0 mi Calm Calm - N/A   Clear
4:19 AM 58.8 °F 58.1 °F 97% 29.84 in 10.0 mi Calm Calm - N/A   Clear
4:36 AM 59.9 °F 59.0 °F 97% 29.84 in 10.0 mi Calm Calm - N/A   Clear
4:55 AM 58.8 °F 57.9 °F 97% 29.84 in 7.0 mi Calm Calm - N/A   Clear
4:56 AM 58.6 °F 57.9 °F 97% 29.84 in 7.0 mi Calm Calm - N/A   Clear
5:15 AM 60.1 °F 59.2 °F 97% 29.85 in 10.0 mi Calm Calm - N/A   Scattered Clouds
5:35 AM 59.9 °F 59.0 °F 97% 29.84 in 10.0 mi Calm Calm - N/A   Overcast
5:58 AM 60.6 °F 59.9 °F 97% 29.82 in 10.0 mi East 3.5 mph - N/A   Overcast
6:16 AM 60.4 °F 59.9 °F 98% 29.81 in 10.0 mi Calm Calm - N/A   Scattered Clouds
6:35 AM 60.8 °F 60.1 °F 97% 29.81 in 10.0 mi East 3.5 mph - N/A   Clear
6:36 AM 60.8 °F 60.1 °F 97% 29.81 in 10.0 mi East 3.5 mph - N/A   Clear
6:55 AM 61.3 °F 60.4 °F 97% 29.79 in 10.0 mi ESE 4.6 mph - N/A   Clear
6:56 AM 61.5 °F 60.6 °F 97% 29.79 in 10.0 mi ESE 5.8 mph - N/A   Clear
7:19 AM 63.1 °F 62.4 °F 97% 29.79 in 10.0 mi SE 4.6 mph - N/A   Scattered Clouds
7:37 AM 64.2 °F 63.3 °F 97% 29.79 in 1.0 mi ESE 6.9 mph - N/A   Overcast
7:55 AM 65.3 °F 64.4 °F 97% 29.79 in 0.2 mi SE 5.8 mph - N/A Fog Fog
7:56 AM 65.3 °F 64.4 °F 97% 29.79 in 0.2 mi SE 5.8 mph - N/A Fog Fog
8:15 AM 66.0 °F 65.3 °F 98% 29.80 in 0.5 mi SSE 5.8 mph - N/A Fog Fog
8:16 AM 66.2 °F 65.5 °F 98% 29.80 in 0.5 mi SSE 5.8 mph - N/A Fog Fog
8:35 AM 68.2 °F 67.3 °F 97% 29.80 in 2.0 mi South 6.9 mph - N/A   Overcast
8:58 AM 68.7 °F 68.0 °F 98% 29.80 in 5.0 mi South 8.1 mph - N/A   Overcast
9:16 AM 69.8 °F 69.1 °F 98% 29.79 in 5.0 mi South 4.6 mph - N/A   Mostly Cloudy
9:35 AM 70.3 °F 68.9 °F 95% 29.80 in 7.0 mi South 5.8 mph - N/A   Scattered Clouds
9:55 AM 70.3 °F 68.9 °F 95% 29.78 in 10.0 mi SSE 8.1 mph - N/A   Scattered Clouds
9:56 AM 70.5 °F 68.9 °F 95% 29.78 in 10.0 mi SSE 6.9 mph - N/A   Scattered Clouds
10:19 AM 71.4 °F 68.5 °F 91% 29.77 in 10.0 mi SSE 6.9 mph - N/A   Scattered Clouds
10:37 AM 72.0 °F 68.7 °F 89% 29.76 in 10.0 mi SSE 10.4 mph - N/A   Mostly Cloudy
10:55 AM 73.2 °F 68.9 °F 86% 29.78 in 10.0 mi South 9.2 mph - N/A   Overcast
11:15 AM 72.7 °F 68.9 °F 88% 29.80 in 10.0 mi SSW 9.2 mph - N/A   Overcast
11:16 AM 72.7 °F 68.9 °F 88% 29.81 in 10.0 mi SSW 11.5 mph 23.0 mph N/A   Overcast
11:35 AM 68.7 °F 66.7 °F 93% 29.77 in 4.0 mi SE 9.2 mph - 0.24 in Rain Rain
11:40 AM 68.2 °F 66.4 °F 94% 29.77 in 5.0 mi SE 6.9 mph - 0.24 in Rain Light Rain
11:58 AM 68.2 °F 67.1 °F 96% 29.74 in 10.0 mi SE 8.1 mph - 0.26 in Rain Light Rain
12:16 PM 68.9 °F 68.0 °F 97% 29.71 in 10.0 mi SE 12.7 mph - N/A Rain Light Rain
12:35 PM 68.9 °F 67.8 °F 96% 29.74 in 10.0 mi SSE 8.1 mph - N/A   Scattered Clouds
12:36 PM 68.9 °F 67.8 °F 96% 29.74 in 10.0 mi SSE 8.1 mph - N/A   Scattered Clouds
12:55 PM 71.2 °F 68.2 °F 90% 29.75 in 10.0 mi SSE 8.1 mph - N/A   Scattered Clouds
12:56 PM 71.2 °F 68.2 °F 90% 29.75 in 10.0 mi SSE 10.4 mph - N/A   Scattered Clouds
1:19 PM 71.4 °F 66.9 °F 86% 29.76 in 10.0 mi South 9.2 mph - N/A   Clear
1:37 PM 72.0 °F 66.7 °F 84% 29.75 in 10.0 mi South 10.4 mph - N/A   Clear
1:55 PM 72.5 °F 66.6 °F 82% 29.75 in 10.0 mi SSW 9.2 mph - N/A   Clear
2:15 PM 73.6 °F 66.4 °F 78% 29.76 in 10.0 mi SSW 9.2 mph - N/A   Clear
2:35 PM 74.1 °F 67.3 °F 79% 29.77 in 10.0 mi WSW 9.2 mph - N/A   Clear
2:39 PM 73.9 °F 66.9 °F 79% 29.77 in 10.0 mi WSW 12.7 mph - N/A   Clear
2:58 PM 73.0 °F 68.0 °F 84% 29.78 in 10.0 mi SW 13.8 mph 19.6 mph N/A   Clear
3:16 PM 73.0 °F 68.5 °F 86% 29.77 in 10.0 mi SW 11.5 mph - N/A   Scattered Clouds
3:35 PM 73.4 °F 68.4 °F 84% 29.78 in 10.0 mi SW 13.8 mph 20.7 mph N/A   Scattered Clouds
3:36 PM 73.4 °F 68.5 °F 85% 29.78 in 10.0 mi SW 13.8 mph 20.7 mph N/A   Clear
3:55 PM 74.1 °F 68.7 °F 83% 29.79 in 10.0 mi WSW 12.7 mph 24.2 mph N/A   Scattered Clouds
4:19 PM 73.8 °F 68.4 °F 83% 29.79 in 10.0 mi WSW 16.1 mph 20.7 mph N/A   Mostly Cloudy
4:37 PM 72.5 °F 67.5 °F 84% 29.79 in 10.0 mi WSW 13.8 mph - N/A   Overcast
4:55 PM 73.4 °F 66.9 °F 80% 29.80 in 10.0 mi WSW 15.0 mph 19.6 mph N/A   Overcast
5:15 PM 73.4 °F 67.3 °F 81% 29.80 in 10.0 mi WSW 13.8 mph 21.9 mph N/A   Overcast
5:35 PM 73.0 °F 66.7 °F 81% 29.80 in 10.0 mi WSW 12.7 mph 20.7 mph N/A   Overcast
5:58 PM 73.4 °F 66.6 °F 79% 29.80 in 10.0 mi WSW 13.8 mph 18.4 mph N/A   Overcast
6:16 PM 73.8 °F 67.3 °F 80% 29.81 in 10.0 mi WSW 12.7 mph - N/A   Mostly Cloudy
6:35 PM 73.4 °F 66.9 °F 80% 29.82 in 10.0 mi SW 12.7 mph 18.4 mph N/A   Mostly Cloudy
6:55 PM 73.4 °F 66.9 °F 80% 29.82 in 10.0 mi WSW 11.5 mph 19.6 mph N/A   Overcast
7:19 PM 72.7 °F 66.6 °F 81% 29.82 in 10.0 mi SW 10.4 mph 16.1 mph N/A   Overcast
7:37 PM 72.5 °F 66.4 °F 81% 29.82 in 10.0 mi WSW 9.2 mph - N/A   Mostly Cloudy
7:56 PM 71.8 °F 66.0 °F 82% 29.82 in 10.0 mi WSW 8.1 mph - N/A   Scattered Clouds
8:15 PM 71.1 °F 65.7 °F 83% 29.80 in 10.0 mi WSW 8.1 mph - N/A   Clear
8:35 PM 70.2 °F 65.7 °F 86% 29.81 in 10.0 mi WSW 6.9 mph - N/A   Clear
8:58 PM 69.3 °F 66.0 °F 89% 29.82 in 10.0 mi WSW 6.9 mph - N/A   Clear
9:16 PM 69.3 °F 65.8 °F 89% 29.82 in 10.0 mi West 3.5 mph - N/A   Clear
9:35 PM 69.3 °F 65.3 °F 87% 29.83 in 10.0 mi WSW 4.6 mph - N/A   Clear
9:36 PM 69.3 °F 65.3 °F 87% 29.83 in 10.0 mi WSW 4.6 mph - N/A   Clear
9:55 PM 68.9 °F 65.5 °F 89% 29.84 in 10.0 mi WSW 4.6 mph - N/A   Clear
10:19 PM 68.7 °F 64.9 °F 88% 29.84 in 10.0 mi WSW 5.8 mph - N/A   Clear
10:37 PM 69.1 °F 65.1 °F 87% 29.84 in 10.0 mi WSW 6.9 mph - N/A   Clear
10:55 PM 69.8 °F 65.3 °F 86% 29.84 in 10.0 mi WSW 5.8 mph - N/A   Clear
10:56 PM 69.8 °F 65.1 °F 85% 29.84 in 10.0 mi WSW 6.9 mph - N/A   Clear
11:15 PM 70.2 °F 64.9 °F 83% 29.85 in 10.0 mi WSW 6.9 mph - N/A   Clear
11:16 PM 70.2 °F 65.1 °F 84% 29.85 in 10.0 mi WSW 6.9 mph - N/A   Clear
11:35 PM 69.3 °F 65.8 °F 89% 29.87 in 10.0 mi WSW 8.1 mph - N/A   Clear
11:57 PM 69.6 °F 65.7 °F 87% 29.88 in 10.0 mi SW 6.9 mph - N/A   Clear